STARLINK-38175, 100161

Orbit data source: Space-Track

STARLINK-38175, 100161 is a payload satellite owned by SpaceX/Seattle (US) in SSO that was launched on Sat, 25 Jul 2026 UTC launched from the Air Force Western Test Range (AFWTR). Payload-class satellites include a variety of spacecraft equipped with specific instruments for various scientific and technological missions. These include communications satellites like Starlink; space stations such as the ISS; scientific satellites like the Hubble; Earth observation satellites from companies like Planet Labs, Umbra, and HawkEye 360; GPS; miniature CubeSats for education and research; and military/defense satellites.

Loading next visibility...
Identifier
100161, 2026-171P
Orbit
SSO
Country
Flag of USUS
Related business
Manufacturer
SpaceX/Seattle
Mission
Operational spacecraft
Bus & Motor
STARLINK V2MO, Unknown motor
Mass
575 kg wet, ~530 kg dry
Launch date (UTC)
2026-07-25 (3 weeks ago)
Launch vehicle
Unknown
Launch site
Air Force Western Test Range (AFWTR)
Object type
Payload
Rocket body
Debris
Shape & HBR
BOX, 17.7 m
Radar Cross Section
RCS unknown

Expand to show TLE details & history
Last TLE update: 8 hours ago

TLE from 8 hours ago
0 STARLINK-38175
1 A0161U 26171P   26227.59484161  .00208682  00000-0  13619-2 0  9990
2 A0161  97.2838 259.4883 0001167  59.1381 300.9999 15.75260798  3325
Epoch: 2026-08-15T14:16Z
TLE epoch observation values (Epoch: 2026-08-15T14:16:34.315Z)
Latitude
0.00001°
Longitude
81.34185°
Altitude
346.654 km
Speed
7.701 km/s
True Right ascension
17h 17m 57s
True Declination
0° 00' 00"
Sunlit
Object was in full shadow at epoch
Visualization orbit readout
Latitude
Unknown
Longitude
Unknown
Altitude
Unknown
Speed
Unknown
Apparent Right ascension
Unknown
Apparent Declination
Unknown
Sunlit
N/A
Visualization observer readout
Local Sidereal Time
13:21:35
Azimuth
Unknown
Elevation
Unknown
Doppler factor
Unknown
Orbital elements
Apogee altitude
341.561 km
Perigee altitude
339.992 km
Semi-major axis
6,718.913 km
Eccentricity
0.00012
Inclination
97.2838°
RAAN
259.4883°
Arg. of periapsis
59.1381°
True anomaly
300.98844°
Mean anomaly
300.9999°
Eccentric anomaly
300.99417°
Mean motion
3.94089 °/min
Orbital period
91.35 mins
BSTAR
0.0013619
Loading maneuver chart data...
Computing Atmospheric mass density...
Loading historical data...
Loading historical data...
Loading historical data...
Loading historical data...
Loading historical data...
Loading historical data...
Loading historical data...

Documentation

Showing up to 5 results
|